| time (UTC) | temp F | wind direction | speed MPH | gust MPH | rain 1hr in | rain 24hr in | rain mn in | humidity % | barometer mb |
| 20260504050503 | 60 | 246 | 2.0 | 7.0 | 0.00 | 0.00 | 0.00 | 1013.9 | |
| 20260504050003 | 60 | 284 | 4.0 | 7.0 | 0.00 | 0.00 | 0.00 | 1013.6 | |
| 20260504045503 | 60 | 269 | 2.0 | 5.0 | 0.00 | 0.00 | 0.00 | 1013.9 | |
| 20260504045002 | 60 | 300 | 3.0 | 8.0 | 0.00 | 0.00 | 0.00 | 1014.3 | |
| 20260504044504 | 60 | 276 | 4.0 | 8.0 | 0.00 | 0.00 | 0.00 | 1014.3 | |
| 20260504044004 | 60 | 284 | 3.0 | 7.0 | 0.00 | 0.00 | 0.00 | 1014.3 | |
| 20260504043502 | 60 | 284 | 3.0 | 8.0 | 0.00 | 0.00 | 0.00 | 1013.9 | |
| 20260504043024 | 60 | 279 | 4.0 | 9.0 | 0.00 | 0.00 | 0.00 | 1013.9 | |
| 20260504042504 | 60 | 280 | 6.0 | 9.0 | 0.00 | 0.00 | 0.00 | 1013.9 | |
| 20260504042024 | 60 | 267 | 3.0 | 8.0 | 0.00 | 0.00 | 0.00 | 1013.9 | |
| 20260504041523 | 60 | 289 | 5.0 | 8.0 | 0.00 | 0.00 | 0.00 | 1013.9 | |
| 20260504041001 | 60 | 282 | 5.0 | 8.0 | 0.00 | 0.00 | 0.00 | 1013.9 | |
| 20260504040523 | 60 | 281 | 4.0 | 9.0 | 0.00 | 0.00 | 0.00 | 1014.3 | |
| 20260504040002 | 60 | 282 | 6.0 | 9.0 | 0.00 | 0.00 | 0.00 | 1014.3 | |
| 20260504035501 | 60 | 260 | 6.0 | 10.0 | 0.00 | 0.00 | 0.00 | 1013.2 | |
| 20260504035002 | 60 | 254 | 5.0 | 10.0 | 0.00 | 0.00 | 0.00 | 1013.9 | |
| 20260504034523 | 60 | 274 | 5.0 | 9.0 | 0.00 | 0.00 | 0.00 | 1013.6 | |
| 20260504034001 | 60 | 258 | 5.0 | 12.0 | 0.00 | 0.00 | 0.00 | 1013.9 | |
| 20260504033502 | 60 | 265 | 8.0 | 12.0 | 0.00 | 0.00 | 0.00 | 1013.9 | |
| 20260504033001 | 60 | 264 | 8.0 | 12.0 | 0.00 | 0.00 | 0.00 | 1013.2 | |
| 20260504032503 | 60 | 278 | 7.0 | 13.0 | 0.00 | 0.00 | 0.00 | 1013.6 | |
| 20260504032002 | 60 | 270 | 7.0 | 13.0 | 0.00 | 0.00 | 0.00 | 1013.2 | |
| 20260504031502 | 60 | 246 | 7.0 | 11.0 | 0.00 | 0.00 | 0.00 | 1012.9 | |
| 20260504031002 | 61 | 263 | 6.0 | 11.0 | 0.00 | 0.00 | 0.00 | 1012.9 | |
| 20260504030502 | 61 | 277 | 6.0 | 11.0 | 0.00 | 0.00 | 0.00 | 1012.6 | |
| 20260504030002 | 60 | 265 | 5.0 | 12.0 | 0.00 | 0.00 | 0.00 | 1012.2 | |
| 20260504025502 | 61 | 267 | 7.0 | 14.0 | 0.00 | 0.00 | 0.00 | 1012.6 | |
| 20260504025001 | 61 | 273 | 6.0 | 14.0 | 0.00 | 0.00 | 0.00 | 1012.6 | |
| 20260504024502 | 61 | 281 | 4.0 | 12.0 | 0.00 | 0.00 | 0.00 | 1012.2 | |
| 20260504024003 | 61 | 284 | 5.0 | 12.0 | 0.00 | 0.00 | 0.00 | 1012.9 | |
| 20260504023503 | 62 | 277 | 5.0 | 9.0 | 0.00 | 0.00 | 0.00 | 1012.9 | |
| 20260504023002 | 62 | 264 | 5.0 | 10.0 | 0.00 | 0.00 | 0.00 | 1012.6 | |
| 20260504022502 | 62 | 247 | 5.0 | 14.0 | 0.00 | 0.00 | 0.00 | 1012.2 | |
| 20260504022002 | 62 | 259 | 8.0 | 14.0 | 0.00 | 0.00 | 0.00 | 1012.2 | |
| 20260504021523 | 62 | 258 | 7.0 | 13.0 | 0.00 | 0.00 | 0.00 | 1012.2 | |
| 20260504021002 | 62 | 274 | 7.0 | 12.0 | 0.00 | 0.00 | 0.00 | 1012.2 | |
| 20260504020501 | 63 | 255 | 4.0 | 10.0 | 0.00 | 0.00 | 0.00 | 1012.9 | |
| 20260504020003 | 63 | 269 | 5.0 | 10.0 | 0.00 | 0.00 | 0.00 | 1012.2 | |
| 20260504015502 | 62 | 286 | 6.0 | 11.0 | 0.00 | 0.00 | 0.00 | 1012.6 | |
| 20260504015023 | 63 | 275 | 4.0 | 11.0 | 0.00 | 0.00 | 0.00 | 1012.6 | |
| 20260504014502 | 63 | 288 | 5.0 | 13.0 | 0.00 | 0.00 | 0.00 | 1012.6 | |
| 20260504014002 | 63 | 261 | 6.0 | 13.0 | 0.00 | 0.00 | 0.00 | 1012.6 | |
| 20260504013502 | 63 | 288 | 4.0 | 12.0 | 0.00 | 0.00 | 0.00 | 1012.2 | |
| 20260504013002 | 63 | 279 | 5.0 | 10.0 | 0.00 | 0.00 | 0.00 | 1012.6 | |
| 20260504012502 | 64 | 241 | 5.0 | 10.0 | 0.00 | 0.00 | 0.00 | 1012.9 | |
| 20260504012002 | 64 | 274 | 6.0 | 12.0 | 0.00 | 0.00 | 0.00 | 1012.9 | |
| 20260504011502 | 64 | 262 | 7.0 | 12.0 | 0.00 | 0.00 | 0.00 | 1012.6 | |
| 20260504011023 | 64 | 254 | 6.0 | 12.0 | 0.00 | 0.00 | 0.00 | 1012.6 | |
| 20260504010502 | 65 | 255 | 6.0 | 11.0 | 0.00 | 0.00 | 0.00 | 1011.9 | |
| 20260504010002 | 65 | 249 | 6.0 | 12.0 | 0.00 | 0.00 | 0.00 | 1011.9 | |
| 20260504005502 | 65 | 262 | 6.0 | 12.0 | 0.00 | 0.00 | 0.00 | 1012.2 | |
| 20260504005001 | 65 | 266 | 6.0 | 12.0 | 0.00 | 0.00 | 0.00 | 1011.9 | |
| 20260504004502 | 64 | 282 | 8.0 | 12.0 | 0.00 | 0.00 | 0.00 | 1012.2 | |
| 20260504004002 | 65 | 288 | 7.0 | 14.0 | 0.00 | 0.00 | 0.00 | 1012.6 | |
| 20260504003502 | 65 | 237 | 6.0 | 14.0 | 0.00 | 0.00 | 0.00 | 1011.9 | |
| 20260504003002 | 66 | 258 | 5.0 | 14.0 | 0.00 | 0.00 | 0.00 | 1011.5 | |
| 20260504002502 | 65 | 251 | 9.0 | 15.0 | 0.00 | 0.00 | 0.00 | 1012.2 | |
| 20260504002002 | 65 | 263 | 7.0 | 15.0 | 0.00 | 0.00 | 0.00 | 1011.5 | |
| 20260504001502 | 65 | 256 | 9.0 | 15.0 | 0.00 | 0.00 | 0.00 | 1011.5 | |
| 20260504001001 | 66 | 255 | 7.0 | 12.0 | 0.00 | 0.00 | 0.00 | 1011.9 | |
| 20260504000503 | 67 | 274 | 4.0 | 11.0 | 0.00 | 0.00 | 0.00 | 1011.9 | |
| 20260504000001 | 66 | 215 | 3.0 | 12.0 | 0.00 | 0.00 | 0.00 | 1011.2 | |
| 20260503235502 | 67 | 249 | 8.0 | 12.0 | 0.00 | 0.00 | 0.00 | 1011.5 | |
| 20260503235001 | 67 | 249 | 6.0 | 13.0 | 0.00 | 0.00 | 0.00 | 1011.9 | |
| 20260503234502 | 67 | 258 | 6.0 | 13.0 | 0.00 | 0.00 | 0.00 | 1011.9 | |
| 20260503234001 | 67 | 249 | 6.0 | 12.0 | 0.00 | 0.00 | 0.00 | 1011.5 | |
| 20260503233502 | 67 | 235 | 8.0 | 12.0 | 0.00 | 0.00 | 0.00 | 1011.5 | |
| 20260503233002 | 67 | 254 | 7.0 | 12.0 | 0.00 | 0.00 | 0.00 | 1011.2 | |
| 20260503232524 | 67 | 252 | 7.0 | 18.0 | 0.00 | 0.00 | 0.00 | 1011.5 | |
| 20260503232001 | 68 | 228 | 8.0 | 18.0 | 0.00 | 0.00 | 0.00 | 1011.2 | |
| 20260503231502 | 69 | 281 | 5.0 | 13.0 | 0.00 | 0.00 | 0.00 | 1011.2 | |
| 20260503231001 | 70 | 211 | 6.0 | 12.0 | 0.00 | 0.00 | 0.00 | 1011.9 | |
| 20260503230502 | 69 | 177 | 3.0 | 12.0 | 0.00 | 0.00 | 0.00 | 1011.5 | |
| 20260503230003 | 68 | 210 | 4.0 | 9.0 | 0.00 | 0.00 | 0.00 | 1011.5 | |
| 20260503225501 | 68 | 222 | 5.0 | 10.0 | 0.00 | 0.00 | 0.00 | 1011.9 | |
| 20260503225002 | 69 | 223 | 7.0 | 10.0 | 0.00 | 0.00 | 0.00 | 1012.2 | |
| 20260503224501 | 70 | 155 | 3.0 | 9.0 | 0.00 | 0.00 | 0.00 | 1011.5 | |
| 20260503224003 | 69 | 227 | 6.0 | 10.0 | 0.00 | 0.00 | 0.00 | 1011.9 | |
| 20260503223502 | 70 | 226 | 4.0 | 10.0 | 0.00 | 0.00 | 0.00 | 1011.9 | |
| 20260503223024 | 69 | 167 | 3.0 | 13.0 | 0.00 | 0.00 | 0.00 | 1012.2 | |
| 20260503222502 | 68 | 202 | 4.0 | 13.0 | 0.00 | 0.00 | 0.00 | 1012.6 | |
| 20260503222002 | 69 | 254 | 4.0 | 9.0 | 0.00 | 0.00 | 0.00 | 1011.5 | |
| 20260503221502 | 68 | 207 | 5.0 | 12.0 | 0.00 | 0.00 | 0.00 | 1011.5 | |
| 20260503221024 | 68 | 213 | 6.0 | 12.0 | 0.00 | 0.00 | 0.00 | 1011.9 | |
| 20260503220501 | 68 | 220 | 5.0 | 12.0 | 0.00 | 0.00 | 0.00 | 1011.9 | |
| 20260503220002 | 69 | 250 | 6.0 | 13.0 | 0.00 | 0.00 | 0.00 | 1011.9 | |
| 20260503215502 | 69 | 201 | 6.0 | 13.0 | 0.00 | 0.00 | 0.00 | 1011.9 | |
| 20260503214502 | 70 | 211 | 8.0 | 20.0 | 0.00 | 0.00 | 0.00 | 1012.6 | |
| 20260503214003 | 71 | 215 | 5.0 | 13.0 | 0.00 | 0.00 | 0.00 | 1011.5 | |
| 20260503213501 | 70 | 209 | 8.0 | 14.0 | 0.00 | 0.00 | 0.00 | 1012.2 | |
| 20260503213002 | 70 | 214 | 9.0 | 15.0 | 0.00 | 0.00 | 0.00 | 1012.6 | |
| 20260503212523 | 69 | 252 | 7.0 | 15.0 | 0.00 | 0.00 | 0.00 | 1012.9 | |
| 20260503212023 | 70 | 233 | 7.0 | 15.0 | 0.00 | 0.00 | 0.00 | 1012.2 | |
| 20260503211502 | 70 | 235 | 8.0 | 15.0 | 0.00 | 0.00 | 0.00 | 1012.2 | |
| 20260503211002 | 70 | 214 | 5.0 | 15.0 | 0.00 | 0.00 | 0.00 | 1011.9 | |
| 20260503210503 | 70 | 222 | 6.0 | 17.0 | 0.00 | 0.00 | 0.00 | 1011.9 | |
| 20260503210001 | 72 | 200 | 5.0 | 17.0 | 0.00 | 0.00 | 0.00 | 1012.2 | |
| 20260503205502 | 71 | 190 | 6.0 | 17.0 | 0.00 | 0.00 | 0.00 | 1012.6 | |
| 20260503205024 | 71 | 223 | 6.0 | 17.0 | 0.00 | 0.00 | 0.00 | 1012.2 | |
| 20260503204502 | 71 | 209 | 8.0 | 16.0 | 0.00 | 0.00 | 0.00 | 1012.6 | |
| 20260503204002 | 72 | 221 | 5.0 | 16.0 | 0.00 | 0.00 | 0.00 | 1012.2 | |
| 20260503203502 | 72 | 217 | 8.0 | 14.0 | 0.00 | 0.00 | 0.00 | 1011.9 | |
| 20260503203002 | 71 | 156 | 5.0 | 14.0 | 0.00 | 0.00 | 0.00 | 1012.2 | |
| 20260503202523 | 69 | 219 | 7.0 | 13.0 | 0.00 | 0.00 | 0.00 | 1011.5 | |
| 20260503202002 | 69 | 234 | 5.0 | 11.0 | 0.00 | 0.00 | 0.00 | 1011.9 | |
| 20260503201502 | 69 | 234 | 7.0 | 14.0 | 0.00 | 0.00 | 0.00 | 1012.2 | |
| 20260503201002 | 69 | 252 | 6.0 | 14.0 | 0.00 | 0.00 | 0.00 | 1012.2 | |
| 20260503200503 | 70 | 211 | 7.0 | 12.0 | 0.00 | 0.00 | 0.00 | 1012.6 | |
| 20260503200002 | 69 | 162 | 2.0 | 9.0 | 0.00 | 0.00 | 0.00 | 1012.6 | |
| 20260503195502 | 68 | 252 | 5.0 | 9.0 | 0.00 | 0.00 | 0.00 | 1011.9 | |
| 20260503195003 | 69 | 214 | 1.0 | 10.0 | 0.00 | 0.00 | 0.00 | 1012.2 | |
| 20260503194502 | 70 | 206 | 4.0 | 10.0 | 0.00 | 0.00 | 0.00 | 1012.6 | |
| 20260503194002 | 69 | 145 | 4.0 | 10.0 | 0.00 | 0.00 | 0.00 | 1012.9 | |
| 20260503193503 | 68 | 139 | 3.0 | 10.0 | 0.00 | 0.00 | 0.00 | 1012.6 | |
| 20260503193002 | 66 | 260 | 3.0 | 8.0 | 0.00 | 0.00 | 0.00 | 1012.2 | |
| 20260503192503 | 67 | 244 | 2.0 | 8.0 | 0.00 | 0.00 | 0.00 | 1012.6 | |
| 20260503192023 | 67 | 132 | 2.0 | 5.0 | 0.00 | 0.00 | 0.00 | 1012.9 | |
| 20260503191525 | 67 | 233 | 3.0 | 7.0 | 0.00 | 0.00 | 0.00 | 1012.9 | |
| 20260503191001 | 67 | 213 | 4.0 | 7.0 | 0.00 | 0.00 | 0.00 | 1012.9 | |
| 20260503190502 | 66 | 13 | 2.0 | 9.0 | 0.00 | 0.00 | 0.00 | 1013.2 | |
| 20260503190003 | 66 | 119 | 2.0 | 9.0 | 0.00 | 0.00 | 0.00 | 1012.2 | |
| 20260503185502 | 66 | 174 | 4.0 | 8.0 | 0.00 | 0.00 | 0.00 | 1012.6 | |
| 20260503185001 | 65 | 197 | 4.0 | 8.0 | 0.00 | 0.00 | 0.00 | 1012.6 | |
| 20260503184502 | 65 | 242 | 4.0 | 7.0 | 0.00 | 0.00 | 0.00 | 1012.9 | |
| 20260503184002 | 65 | 211 | 2.0 | 7.0 | 0.00 | 0.00 | 0.00 | 1013.2 | |
| 20260503183503 | 65 | 222 | 4.0 | 8.0 | 0.00 | 0.00 | 0.00 | 1013.2 | |
| 20260503183001 | 65 | 135 | 4.0 | 8.0 | 0.00 | 0.00 | 0.00 | 1013.6 | |
| 20260503182503 | 65 | 186 | 4.0 | 8.0 | 0.00 | 0.00 | 0.00 | 1013.2 | |
| 20260503182002 | 64 | 232 | 3.0 | 10.0 | 0.00 | 0.00 | 0.00 | 1012.9 | |
| 20260503181523 | 65 | 209 | 5.0 | 10.0 | 0.00 | 0.00 | 0.00 | 1013.2 | |
| 20260503181001 | 65 | 192 | 5.0 | 10.0 | 0.00 | 0.00 | 0.00 | 1013.2 | |
| 20260503180502 | 64 | 222 | 4.0 | 9.0 | 0.00 | 0.00 | 0.00 | 1012.9 | |
| 20260503180002 | 63 | 210 | 5.0 | 10.0 | 0.00 | 0.00 | 0.00 | 1013.2 | |
| 20260503175503 | 63 | 236 | 5.0 | 10.0 | 0.00 | 0.00 | 0.00 | 1013.2 | |
| 20260503175002 | 63 | 252 | 6.0 | 12.0 | 0.00 | 0.00 | 0.00 | 1012.9 | |
| 20260503174502 | 63 | 246 | 6.0 | 12.0 | 0.00 | 0.00 | 0.00 | 1013.2 | |
| 20260503174002 | 62 | 267 | 5.0 | 11.0 | 0.00 | 0.00 | 0.00 | 1012.9 | |
| 20260503173525 | 62 | 253 | 6.0 | 10.0 | 0.00 | 0.00 | 0.00 | 1012.9 | |
| 20260503173002 | 63 | 235 | 7.0 | 10.0 | 0.00 | 0.00 | 0.00 | 1012.6 | |
| 20260503172503 | 63 | 218 | 5.0 | 9.0 | 0.00 | 0.00 | 0.00 | 1012.6 | |
| 20260503172002 | 63 | 225 | 5.0 | 10.0 | 0.00 | 0.00 | 0.00 | 1012.6 | |
| 20260503171502 | 63 | 204 | 4.0 | 10.0 | 0.00 | 0.00 | 0.00 | 1013.2 | |
| 20260503171001 | 62 | 229 | 4.0 | 9.0 | 0.00 | 0.00 | 0.00 | 1012.9 | |
| 20260503170503 | 62 | 222 | 5.0 | 9.0 | 0.00 | 0.00 | 0.00 | 1012.9 | |
| 20260503151003 | 61 | 224 | 2.0 | 5.0 | 0.00 | 0.00 | 0.00 | 1012.2 | |
| 20260503150503 | 61 | 207 | 2.0 | 5.0 | 0.00 | 0.00 | 0.00 | 1011.9 | |
| 20260503131002 | 59 | 88 | 1.0 | 2.0 | 0.00 | 0.00 | 0.00 | 1011.9 | |
| 20260503130503 | 59 | 360 | 0.0 | 2.0 | 0.00 | 0.00 | 0.00 | 1011.9 | |
| 20260503110502 | 58 | 235 | 4.0 | 7.0 | 0.00 | 0.00 | 0.00 | 1011.9 | |
| 20260503090502 | 59 | 225 | 4.0 | 7.0 | 0.00 | 0.00 | 0.00 | 1012.2 | |
| 20260503081523 | 60 | 198 | 4.0 | 7.0 | 0.00 | 0.00 | 0.00 | 1011.9 | |
| 20260503081002 | 60 | 193 | 3.0 | 6.0 | 0.00 | 0.00 | 0.00 | 1012.2 | |
| 20260503080503 | 60 | 187 | 3.0 | 5.0 | 0.00 | 0.00 | 0.00 | 1011.9 | |
| 20260503072502 | 59 | 219 | 2.0 | 5.0 | 0.00 | 0.00 | 0.00 | 1011.9 | |
| 20260503072002 | 59 | 246 | 2.0 | 5.0 | 0.00 | 0.00 | 0.00 | 1011.9 | |
| 20260503071502 | 59 | 231 | 4.0 | 5.0 | 0.00 | 0.00 | 0.00 | 1011.9 | |
| 20260503071004 | 59 | 237 | 4.0 | 7.0 | 0.00 | 0.00 | 0.00 | 1012.6 | |
| 20260503070502 | 59 | 236 | 4.0 | 7.0 | 0.00 | 0.00 | 0.00 | 1012.2 | |
| 20260503055002 | 58 | 288 | 2.0 | 7.0 | 0.00 | 0.00 | 0.00 | 1011.2 | |
| 20260503054503 | 58 | 278 | 5.0 | 7.0 | 0.00 | 0.00 | 0.00 | 1011.5 | |
| 20260503054002 | 59 | 311 | 3.0 | 6.0 | 0.00 | 0.00 | 0.00 | 1011.5 | |
| 20260503053502 | 59 | 296 | 3.0 | 6.0 | 0.00 | 0.00 | 0.00 | 1011.5 | |
| 20260503053001 | 59 | 287 | 3.0 | 6.0 | 0.00 | 0.00 | 0.00 | 1011.2 | |
| 20260503052524 | 59 | 290 | 3.0 | 7.0 | 0.00 | 0.00 | 0.00 | 1011.9 |